SCP
-0 -0 -0 -0 -0 -0 -0 -0 0 0 0 -0 -0 -0 -0 -0 -0 -0 -0 -0 -0 0 0 0 0 0 0 0 0 0 0 0 0 0 0 0 0 0 0 0 0 0 0 0 -0 -0 -0
-0 -0 -0 -0 -0 -0 -0 -0 0 0 -0 -0 -0 -0 -0 -0 -0 -0 -0 -0 -0 -0 -0 -0 -0 -0 0 0 0 0 0 0 0 0 0 0 0 0 0 0 0 0 0 0 -0 -0 0
0 0 -0 -0 -0 -0 -0 -0 0 -0 -0 -0 -0 -0 -0 -0 -0 -0 -0 -0 -0 -0 -0 -0 -0 -0 0 0 0 0 0 0 0 0 0 0 0 0 0 0 0 0 0 0 -0 -0 0
0 0 -0 -0 -0 -0 -0 -0 0 0 -0 -0 -0 -0 -0 -0 -0 -0 -0 -0 -0 -0 -0 -0 -0 -0 0 -0 0 0 0 0 0 0 0 0 0 0 0 0 0 0 0 0 0 0 0
0 0 0 -0 -0 -0 -0 -0 0 -0 -0 -0 -0 -0 -0 -0 -0 -0 -0 -0 -0 -0 -0 -0 -0 -0 0 0 0 0 0 0 0 0 0 0 0 0 0 0 0 0 0 0 0 0 0
0 -0 -0 -0 -0 -0 -0 -0 0 -0 -0 -0 -0 -0 -0 -0 -0 -0 -0 -0 0 0 0 0 -0 -0 -0 0 0 0 0 0 0 0 0 0 0 0 0 0 0 0 0 0 0 0 0
0 -0 -0 -0 -0 -0 -0 -0 0 -0 -0 -0 -0 -0 -0 -0 -0 -0 -0 0 -0 -0 -0 -0 -0 -0 -0 -0 -0 0 0 0 0 0 0 0 0 0 0 0 0 0 0 -0 -0 -0 0
0 0 -0 -0 -0 -0 -0 0 0 0 -0 -0 -0 -0 -0 -0 -0 -0 -0 -0 -0 0 -0 -0 -0 -0 -0 -0 0 0 -0 0 0 0 0 0 0 0 0 0 0 0 0 -0 -0 -0 -0
0 0 -0 -0 -0 -0 -0 0 0 0 0 -0 -0 -0 -0 -0 -0 -0 -0 -0 0 0 -0 -0 -0 -0 -0 -0 0 -0 -0 0 0 0 0 0 0 0 0 0 0 0 0 -0 -0 -0 -0
0 -0 -0 -0 -0 -0 -0 0 0 0 0 -0 -0 -0 -0 -0 -0 -0 -0 0 0 0 -0 -0 -0 0 0 0 -0 -0 -0 0 0 0 0 0 0 0 0 0 0 0 0 -0 -0 -0 -0
-0 -0 -0 -0 -0 -0 0 0 0 0 0 0 -0 -0 -0 -0 -0 -0 0 -0 0 0 0 -0 -0 0 0 -0 0 -0 -0 0 0 0 -0 0 0 0 0 0 0 0 0 0 -0 -0 -0
-0 -0 -0 -0 -0 0 0 0 0 0 0 0 -0 -0 -0 -0 -0 -0 -0 -0 0 -0 0 -0 -0 -0 -0 -0 -0 -0 -0 -0 -0 0 0 -0 0 0 0 0 0 0 0 0 0 0 -0
0 0 0 0 0 0 0 0 0 0 0 0 0 -0 -0 -0 -0 -0 -0 -0 0 0 -0 -0 -0 -0 0 -0 -0 -0 0 -0 -0 0 0 0 0 0 0 0 0 0 0 0 0 -0 -0
0 0 0 0 0 0 0 0 0 0 0 0 0 -0 -0 -0 -0 -0 -0 0 0 0 -0 0 -0 0 0 0 0 -0 -0 0 0 0 0 0 0 0 0 0 0 0 0 0 -0 -0 -0
0 0 0 0 0 0 0 0 0 0 0 -0 0 -0 -0 -0 -0 -0 0 0 0 0 0 -0 0 0 0 0 0 0 -0 0 0 0 0 0 0 0 0 0 0 0 0 0 0 -0 -0
0 0 0 0 0 0 0 0 0 0 -0 -0 0 0 0 -0 -0 0 0 0 0 0 0 0 0 0 0 0 0 0 0 0 0 0 -0 0 0 0 0 0 0 0 0 0 0 -0 -0
0 0 0 0 0 0 0 0 0 0 -0 0 0 0 0 -0 -0 0 0 0 0 0 -0 0 0 0 0 0 0 0 0 0 0 0 0 0 0 0 0 0 0 0 0 0 0 0 -0
0 0 0 0 0 0 0 0 0 0 0 0 0 0 0 0 0 0 0 0 0 0 0 0 0 0 0 0 0 0 0 0 0 0 0 0 0 0 0 0 0 0 0 0 0 0 0
0 0 0 0 0 0 0 0 0 0 0 0 0 0 0 0 0 0 0 0 0 0 0 0 0 0 0 0 0 0 0 0 0 0 0 0 0 0 0 0 0 0 0 0 0 0 0
0 0 0 0 0 0 0 0 0 0 0 0 0 0 0 0 0 0 0 0 0 0 0 0 0 0 0 0 0 0 0 0 0 0 0 0 0 0 0 0 0 0 0 0 0 0 0
0 0 0 0 0 0 0 0 0 0 0 0 0 0 0 0 0 0 0 0 0 0 0 0 0 0 0 0 0 0 0 0 0 0 0 0 0 0 0 0 0 0 0 0 0 0 0
0 0 0 0 0 0 0 0 0 0 0 0 0 0 0 0 0 0 0 0 0 0 0 0 0 0 0 0 0 0 0 0 0 0 0 0 0 0 0 0 0 0 0 0 0 0 0
0 0 0 0 0 0 0 0 0 0 0 0 0 0 0 0 0 0 0 0 0 0 0 0 0 0 0 0 0 0 0 0 0 0 0 0 0 0 0 0 0 0 0 0 0 0 0
0 0 0 0 0 0 0 0 0 0 0 0 0 0 0 0 0 0 0 0 0 0 0 0 0 0 0 0 0 0 0 0 0 0 0 0 0 0 0 0 0 0 0 0 0 0 0
0 0 0 0 0 0 0 0 0 0 0 0 0 0 0 0 0 0 0 0 0 0 0 0 0 0 -0 0 0 0 0 0 0 0 0 0 0 0 0 0 0 0 0 0 0 0 0
0 0 0 0 0 0 0 0 0 0 0 0 0 0 0 0 0 0 0 0 0 0 0 0 0 0 0 0 0 0 0 0 0 0 0 0 0 0 0 0 0 0 0 0 0 0 0
0 0 0 0 0 0 0 0 0 0 0 0 0 0 0 0 0 0 0 0 0 0 0 0 0 0 0 0 0 0 0 0 0 0 0 0 0 0 0 0 0 0 0 0 0 0 0
0 0 0 0 0 0 0 0 0 0 0 0 0 0 0 0 0 0 0 0 0 0 0 0 0 0 0 0 0 0 0 0 0 0 0 0 0 0 0 0 0 0 0 0 0 0 0
0 0 0 0 0 0 0 0 0 0 0 0 0 0 0 0 0 0 0 0 0 0 0 0 0 0 0 0 0 0 0 0 0 0 0 0 0 0 0 0 0 0 0 0 0 0 0
Wind_Speed_500mb
23 19 17 17 14 11 10 10 12 14 15 17 19 20 19 18 18 18 21 24 28 28 23 21 16 12 6 8 9 10 4 20 26 23 20 20 15 5 4 1 2 3 12 11 29 30 30
32 28 24 21 17 13 11 11 12 12 13 15 17 19 20 20 18 18 20 24 27 27 23 21 18 12 5 8 14 20 18 22 24 24 18 20 13 6 6 6 3 12 24 18 20 30 21
33 29 26 22 19 16 14 13 13 13 13 14 16 19 21 20 18 17 19 24 26 24 19 21 18 12 11 7 15 16 22 15 11 17 18 18 19 8 3 8 11 14 15 19 19 27 14
33 29 25 22 20 18 17 15 14 14 14 14 15 18 21 21 17 17 22 26 25 16 15 18 20 14 9 11 8 7 10 9 9 17 18 23 15 10 4 12 7 4 4 4 7 9 10
33 30 27 24 22 20 19 18 16 15 15 15 15 18 21 19 15 18 25 29 19 6 16 10 12 11 7 4 4 5 3 10 11 21 19 20 13 6 8 9 8 7 6 9 9 14 9
33 32 29 25 23 21 19 18 17 16 16 15 16 19 21 16 14 18 26 18 9 8 20 6 12 7 8 9 7 5 14 13 12 28 18 8 4 6 5 6 6 13 11 11 16 12 11
35 34 31 27 24 22 20 19 18 18 17 15 16 18 19 14 11 15 28 14 19 8 17 8 7 2 3 10 13 14 20 18 22 5 6 3 8 10 10 3 12 15 20 20 9 4 11
37 34 33 29 25 23 22 21 21 21 18 17 17 18 17 11 8 10 18 16 21 16 11 5 1 3 5 4 11 16 20 6 5 9 7 8 7 6 9 10 7 12 15 11 9 6 6
39 37 34 32 27 24 24 23 23 22 18 17 16 16 15 8 5 6 10 24 33 22 3 6 5 4 9 15 13 12 19 11 8 7 4 12 4 14 8 14 13 9 8 16 10 13 13
40 39 37 34 31 28 27 26 24 24 20 17 16 14 10 6 2 7 5 26 32 12 4 10 1 6 9 9 7 11 10 4 4 9 6 4 6 9 9 14 14 14 12 18 20 8 7
42 41 39 37 34 31 29 29 27 26 22 18 15 12 8 6 5 7 11 28 26 6 4 13 4 5 9 4 14 6 7 1 7 9 5 3 8 10 11 13 19 2 20 19 13 11 8
40 41 42 39 37 34 32 30 30 28 25 19 17 12 8 7 11 8 11 25 10 3 6 5 4 3 5 5 5 9 4 6 4 4 2 7 2 5 2 9 18 29 27 16 7 4 3
38 39 40 42 42 38 35 33 30 30 28 21 18 12 9 8 6 8 14 13 2 5 5 9 4 4 6 5 7 3 5 3 1 1 1 3 2 2 10 21 20 12 22 4 3 4 2
37 39 39 40 42 43 39 37 33 30 28 20 16 9 8 8 11 10 8 2 6 2 6 5 6 6 6 4 6 4 6 3 4 2 1 4 9 18 15 6 12 26 15 8 8 8 6
36 38 39 40 41 42 43 41 37 33 29 20 10 5 6 8 6 6 3 3 6 6 2 9 1 4 5 4 4 3 6 5 2 3 5 3 2 5 13 10 21 13 15 5 7 5 4
35 36 37 39 40 42 43 44 39 34 31 18 9 4 8 10 10 5 2 4 4 7 3 2 2 4 5 6 5 3 3 3 3 4 4 2 6 6 6 13 12 14 21 8 6 9 8
35 34 35 37 39 41 42 43 43 37 30 15 4 4 3 17 11 2 4 4 6 8 8 2 3 3 5 3 5 3 3 3 4 4 5 2 5 1 8 3 13 11 11 7 5 4 3
33 34 34 35 35 38 40 41 42 39 31 15 2 4 5 19 4 2 5 7 3 4 6 4 4 4 4 3 4 2 3 2 6 2 4 4 1 8 4 5 4 4 3 13 14 12 2
30 33 34 34 34 33 36 39 39 38 34 24 9 5 17 9 6 5 3 5 6 5 7 8 4 1 3 6 4 3 3 1 8 2 2 4 0 7 6 8 7 2 3 4 3 3 12
29 30 30 31 32 33 33 34 37 36 31 24 4 4 4 7 5 4 6 6 6 10 6 8 7 3 6 4 0 8 5 2 5 5 9 5 2 7 11 8 8 5 1 3 6 6 7
25 25 27 27 29 32 32 33 32 33 30 17 5 1 3 6 7 4 5 1 6 10 4 8 4 8 9 8 6 7 5 2 2 6 5 2 8 5 11 15 13 11 7 4 7 5 8
22 22 26 29 31 32 33 31 30 27 25 10 5 4 5 3 2 6 7 10 10 9 13 12 7 10 10 8 15 15 9 4 4 3 3 3 1 3 10 7 10 9 8 11 5 5 9
22 22 25 28 32 33 33 31 29 24 19 6 6 4 3 3 3 6 7 8 8 3 11 10 19 12 11 9 11 4 6 8 3 3 2 0 2 3 9 3 7 14 14 11 7 5 6
24 23 27 30 33 34 33 31 26 24 18 10 6 4 1 4 6 6 4 5 10 12 6 11 27 13 12 23 29 20 19 14 11 12 4 5 4 3 8 4 14 4 2 6 14 5 13
26 26 27 30 31 32 31 29 24 22 18 12 8 2 3 6 7 17 15 9 10 5 11 18 17 11 37 17 5 3 1 3 2 5 5 1 4 4 6 7 8 6 12 12 12 7 14
28 28 26 29 32 31 29 27 24 22 17 13 8 8 8 4 9 9 7 4 4 7 8 8 13 39 23 6 4 6 4 2 3 4 3 7 2 8 5 8 10 3 4 4 7 13 32
26 28 29 30 30 28 25 24 23 21 17 13 8 7 9 7 13 3 8 5 1 2 4 8 16 13 11 6 5 5 5 1 4 5 5 4 1 11 11 11 10 4 3 3 11 4 10
27 30 29 28 27 24 22 21 21 20 17 13 11 14 20 11 31 26 14 7 6 2 4 8 10 5 5 6 6 7 6 9 5 4 5 6 6 5 3 8 16 6 9 9 9 11 6
28 27 27 25 25 22 21 20 21 20 18 15 11 13 16 26 20 21 30 34 34 23 9 6 4 9 14 8 4 7 6 8 7 5 4 7 7 1 10 4 2 10 19 13 5 8 8
Wind_Direction_500mb
35 33 38 33 31 32 26 18 18 20 18 16 16 13 8 1 359 2 1 3 4 6 8 11 13 9 61 94 54 38 113 175 179 174 159 157 142 140 105 330 302 186 87 91 154 160 167
42 43 36 31 31 31 27 16 12 11 9 9 8 5 1 356 352 354 354 356 359 1 4 9 13 15 96 94 83 68 85 149 174 169 152 155 156 127 76 50 18 98 100 92 149 160 159
37 35 31 30 32 28 22 13 6 5 2 360 0 358 354 350 351 352 349 349 352 354 5 6 14 46 104 78 108 91 87 99 136 173 169 156 136 119 44 112 123 128 111 101 83 153 133
34 33 35 36 36 28 21 11 4 3 360 355 354 352 351 351 356 348 348 347 342 345 11 11 38 79 72 127 135 91 61 70 102 168 151 167 129 88 105 127 82 109 131 114 29 165 127
30 29 30 33 31 23 16 10 7 4 358 353 349 349 352 355 352 351 350 344 338 2 19 50 38 82 83 21 295 260 100 67 114 153 155 149 158 116 138 154 129 42 82 58 105 35 121
28 27 27 29 28 22 15 10 6 2 357 351 348 348 354 357 353 3 357 354 28 40 360 47 28 101 64 63 68 112 146 91 112 127 112 123 114 152 111 191 153 123 113 66 90 15 70
25 26 25 23 22 20 14 10 6 359 354 349 348 350 352 356 7 22 17 19 13 5 0 329 308 300 103 54 72 114 142 113 127 102 136 91 199 184 157 127 110 106 112 110 111 131 73
22 21 22 20 16 12 8 2 359 356 354 348 346 347 348 2 35 35 24 42 23 322 314 330 60 248 218 109 108 130 150 133 138 112 135 155 186 166 159 147 144 128 120 109 131 152 112
22 20 18 19 16 10 4 357 354 354 349 342 339 345 346 356 39 34 10 9 355 348 270 303 316 77 106 119 121 154 162 134 126 103 130 175 116 160 167 167 190 191 212 176 139 145 95
19 19 18 15 14 9 2 356 351 350 344 336 333 340 342 330 325 339 360 351 351 353 24 11 97 118 137 121 93 139 169 148 107 138 172 170 143 172 189 205 203 216 200 169 135 137 46
17 16 14 13 11 6 359 355 350 345 340 331 324 330 326 220 272 328 328 342 347 351 78 338 49 103 144 82 136 151 163 113 124 136 213 149 184 178 203 222 201 154 143 145 136 96 135
9 10 10 8 7 4 359 352 349 342 336 325 315 314 298 246 246 283 318 334 337 247 64 6 62 55 136 36 86 120 141 70 88 118 338 264 229 241 324 48 176 135 111 92 74 56 129
359 2 4 4 4 1 358 353 348 342 334 323 308 295 260 248 232 273 313 324 274 53 332 358 359 16 116 65 92 89 153 148 249 318 352 305 148 99 146 104 135 180 179 145 161 197 272
351 354 356 358 360 0 356 353 348 341 335 323 306 273 242 251 247 269 314 149 80 338 285 6 359 70 83 25 67 71 115 109 65 7 283 335 185 176 175 226 189 188 220 184 212 185 184
344 347 350 352 354 356 356 352 351 343 337 327 300 252 234 206 206 219 173 118 160 196 292 328 239 75 107 103 123 116 51 41 359 267 320 305 229 185 206 159 161 177 218 109 114 155 220
339 341 344 347 350 351 353 352 352 347 339 331 300 221 206 187 171 174 137 167 197 220 288 28 80 355 90 36 121 119 63 28 15 43 230 137 287 173 132 165 185 231 157 178 222 203 228
334 337 340 344 348 350 351 351 352 351 344 330 287 187 238 174 166 190 193 191 232 238 206 214 140 93 58 57 56 101 108 123 4 46 94 68 283 165 186 216 194 164 187 215 258 250 248
329 332 335 339 344 348 351 352 352 351 355 335 231 168 203 164 165 7 174 197 229 240 156 156 126 109 162 118 90 112 147 259 351 303 344 37 247 274 337 354 273 305 235 226 240 201 227
323 327 331 337 343 347 350 353 354 353 356 357 340 129 156 168 201 199 232 253 254 230 191 156 140 108 89 135 145 179 212 5 14 98 56 170 94 271 181 159 157 180 98 162 184 300 215
319 325 330 335 342 346 346 351 354 353 351 348 318 181 160 198 180 186 186 230 226 206 165 122 123 133 135 135 142 177 199 195 350 70 67 169 172 274 285 357 337 229 194 113 192 213 212
313 319 326 335 342 344 345 346 350 353 349 350 347 46 152 171 183 200 206 253 185 161 169 149 132 208 174 164 183 206 213 184 138 36 75 328 277 244 279 269 251 274 271 251 208 164 240
301 314 323 329 339 344 344 346 346 350 353 354 4 7 348 272 214 188 188 201 219 177 167 187 194 166 178 177 205 206 192 224 232 101 76 38 311 268 277 283 206 243 276 272 247 193 206
286 302 313 325 334 341 342 341 344 349 359 342 352 345 342 279 194 201 199 187 232 214 201 206 174 150 195 227 179 118 122 82 64 308 139 242 200 269 279 1 220 250 225 227 277 232 260
281 296 306 318 328 334 338 337 336 344 356 350 328 305 231 257 244 233 210 232 251 229 201 174 161 149 170 137 109 95 77 83 77 58 17 164 160 197 284 261 240 51 196 259 247 229 240
278 290 300 309 318 326 333 332 327 329 344 343 308 263 196 260 284 278 260 258 298 207 203 170 174 188 159 136 94 78 115 200 138 47 42 301 185 225 253 239 312 236 201 201 222 215 199
274 284 293 301 309 317 324 327 324 319 329 330 298 247 211 260 232 267 310 294 238 180 162 113 146 156 158 93 135 179 211 212 242 172 120 78 50 248 170 249 267 353 137 133 162 246 187
273 282 289 294 300 307 315 317 320 318 322 321 283 226 209 240 275 243 235 288 252 174 160 132 152 171 178 142 141 167 200 187 241 234 187 200 191 239 232 250 263 279 132 155 232 57 182
275 282 287 290 294 298 306 309 313 315 315 316 289 246 232 242 262 260 254 257 310 262 192 144 140 169 119 142 167 173 189 187 219 235 218 215 198 218 188 237 256 156 154 228 46 47 129
274 280 281 282 286 292 297 301 305 307 304 302 297 265 244 244 260 261 251 245 249 245 296 241 290 168 157 113 175 138 163 169 211 243 177 231 227 244 223 289 173 235 252 252 316 206 164
Wind_Speed_850mb
23 19 17 17 14 11 10 10 12 14 15 17 19 20 19 18 18 18 21 24 28 28 23 21 16 12 6 8 9 10 4 20 26 23 20 20 15 5 4 1 2 3 12 11 29 30 30
32 28 24 21 17 13 11 11 12 12 13 15 17 19 20 20 18 18 20 24 27 27 23 21 18 12 5 8 14 20 18 22 24 24 18 20 13 6 6 6 3 12 24 18 20 30 21
33 29 26 22 19 16 14 13 13 13 13 14 16 19 21 20 18 17 19 24 26 24 19 21 18 12 11 7 15 16 22 15 11 17 18 18 19 8 3 8 11 14 15 19 19 27 14
33 29 25 22 20 18 17 15 14 14 14 14 15 18 21 21 17 17 22 26 25 16 15 18 20 14 9 11 8 7 10 9 9 17 18 23 15 10 4 12 7 4 4 4 7 9 10
33 30 27 24 22 20 19 18 16 15 15 15 15 18 21 19 15 18 25 29 19 6 16 10 12 11 7 4 4 5 3 10 11 21 19 20 13 6 8 9 8 7 6 9 9 14 9
33 32 29 25 23 21 19 18 17 16 16 15 16 19 21 16 14 18 26 18 9 8 20 6 12 7 8 9 7 5 14 13 12 28 18 8 4 6 5 6 6 13 11 11 16 12 11
35 34 31 27 24 22 20 19 18 18 17 15 16 18 19 14 11 15 28 14 19 8 17 8 7 2 3 10 13 14 20 18 22 5 6 3 8 10 10 3 12 15 20 20 9 4 11
37 34 33 29 25 23 22 21 21 21 18 17 17 18 17 11 8 10 18 16 21 16 11 5 1 3 5 4 11 16 20 6 5 9 7 8 7 6 9 10 7 12 15 11 9 6 6
39 37 34 32 27 24 24 23 23 22 18 17 16 16 15 8 5 6 10 24 33 22 3 6 5 4 9 15 13 12 19 11 8 7 4 12 4 14 8 14 13 9 8 16 10 13 13
40 39 37 34 31 28 27 26 24 24 20 17 16 14 10 6 2 7 5 26 32 12 4 10 1 6 9 9 7 11 10 4 4 9 6 4 6 9 9 14 14 14 12 18 20 8 7
42 41 39 37 34 31 29 29 27 26 22 18 15 12 8 6 5 7 11 28 26 6 4 13 4 5 9 4 14 6 7 1 7 9 5 3 8 10 11 13 19 2 20 19 13 11 8
40 41 42 39 37 34 32 30 30 28 25 19 17 12 8 7 11 8 11 25 10 3 6 5 4 3 5 5 5 9 4 6 4 4 2 7 2 5 2 9 18 29 27 16 7 4 3
38 39 40 42 42 38 35 33 30 30 28 21 18 12 9 8 6 8 14 13 2 5 5 9 4 4 6 5 7 3 5 3 1 1 1 3 2 2 10 21 20 12 22 4 3 4 2
37 39 39 40 42 43 39 37 33 30 28 20 16 9 8 8 11 10 8 2 6 2 6 5 6 6 6 4 6 4 6 3 4 2 1 4 9 18 15 6 12 26 15 8 8 8 6
36 38 39 40 41 42 43 41 37 33 29 20 10 5 6 8 6 6 3 3 6 6 2 9 1 4 5 4 4 3 6 5 2 3 5 3 2 5 13 10 21 13 15 5 7 5 4
35 36 37 39 40 42 43 44 39 34 31 18 9 4 8 10 10 5 2 4 4 7 3 2 2 4 5 6 5 3 3 3 3 4 4 2 6 6 6 13 12 14 21 8 6 9 8
35 34 35 37 39 41 42 43 43 37 30 15 4 4 3 17 11 2 4 4 6 8 8 2 3 3 5 3 5 3 3 3 4 4 5 2 5 1 8 3 13 11 11 7 5 4 3
33 34 34 35 35 38 40 41 42 39 31 15 2 4 5 19 4 2 5 7 3 4 6 4 4 4 4 3 4 2 3 2 6 2 4 4 1 8 4 5 4 4 3 13 14 12 2
30 33 34 34 34 33 36 39 39 38 34 24 9 5 17 9 6 5 3 5 6 5 7 8 4 1 3 6 4 3 3 1 8 2 2 4 0 7 6 8 7 2 3 4 3 3 12
29 30 30 31 32 33 33 34 37 36 31 24 4 4 4 7 5 4 6 6 6 10 6 8 7 3 6 4 0 8 5 2 5 5 9 5 2 7 11 8 8 5 1 3 6 6 7
25 25 27 27 29 32 32 33 32 33 30 17 5 1 3 6 7 4 5 1 6 10 4 8 4 8 9 8 6 7 5 2 2 6 5 2 8 5 11 15 13 11 7 4 7 5 8
22 22 26 29 31 32 33 31 30 27 25 10 5 4 5 3 2 6 7 10 10 9 13 12 7 10 10 8 15 15 9 4 4 3 3 3 1 3 10 7 10 9 8 11 5 5 9
22 22 25 28 32 33 33 31 29 24 19 6 6 4 3 3 3 6 7 8 8 3 11 10 19 12 11 9 11 4 6 8 3 3 2 0 2 3 9 3 7 14 14 11 7 5 6
24 23 27 30 33 34 33 31 26 24 18 10 6 4 1 4 6 6 4 5 10 12 6 11 27 13 12 23 29 20 19 14 11 12 4 5 4 3 8 4 14 4 2 6 14 5 13
26 26 27 30 31 32 31 29 24 22 18 12 8 2 3 6 7 17 15 9 10 5 11 18 17 11 37 17 5 3 1 3 2 5 5 1 4 4 6 7 8 6 12 12 12 7 14
28 28 26 29 32 31 29 27 24 22 17 13 8 8 8 4 9 9 7 4 4 7 8 8 13 39 23 6 4 6 4 2 3 4 3 7 2 8 5 8 10 3 4 4 7 13 32
26 28 29 30 30 28 25 24 23 21 17 13 8 7 9 7 13 3 8 5 1 2 4 8 16 13 11 6 5 5 5 1 4 5 5 4 1 11 11 11 10 4 3 3 11 4 10
27 30 29 28 27 24 22 21 21 20 17 13 11 14 20 11 31 26 14 7 6 2 4 8 10 5 5 6 6 7 6 9 5 4 5 6 6 5 3 8 16 6 9 9 9 11 6
28 27 27 25 25 22 21 20 21 20 18 15 11 13 16 26 20 21 30 34 34 23 9 6 4 9 14 8 4 7 6 8 7 5 4 7 7 1 10 4 2 10 19 13 5 8 8
Wind_Direction_850mb
35 33 38 33 31 32 26 18 18 20 18 16 16 13 8 1 359 2 1 3 4 6 8 11 13 9 61 94 54 38 113 175 179 174 159 157 142 140 105 330 302 186 87 91 154 160 167
42 43 36 31 31 31 27 16 12 11 9 9 8 5 1 356 352 354 354 356 359 1 4 9 13 15 96 94 83 68 85 149 174 169 152 155 156 127 76 50 18 98 100 92 149 160 159
37 35 31 30 32 28 22 13 6 5 2 360 0 358 354 350 351 352 349 349 352 354 5 6 14 46 104 78 108 91 87 99 136 173 169 156 136 119 44 112 123 128 111 101 83 153 133
34 33 35 36 36 28 21 11 4 3 360 355 354 352 351 351 356 348 348 347 342 345 11 11 38 79 72 127 135 91 61 70 102 168 151 167 129 88 105 127 82 109 131 114 29 165 127
30 29 30 33 31 23 16 10 7 4 358 353 349 349 352 355 352 351 350 344 338 2 19 50 38 82 83 21 295 260 100 67 114 153 155 149 158 116 138 154 129 42 82 58 105 35 121
28 27 27 29 28 22 15 10 6 2 357 351 348 348 354 357 353 3 357 354 28 40 360 47 28 101 64 63 68 112 146 91 112 127 112 123 114 152 111 191 153 123 113 66 90 15 70
25 26 25 23 22 20 14 10 6 359 354 349 348 350 352 356 7 22 17 19 13 5 0 329 308 300 103 54 72 114 142 113 127 102 136 91 199 184 157 127 110 106 112 110 111 131 73
22 21 22 20 16 12 8 2 359 356 354 348 346 347 348 2 35 35 24 42 23 322 314 330 60 248 218 109 108 130 150 133 138 112 135 155 186 166 159 147 144 128 120 109 131 152 112
22 20 18 19 16 10 4 357 354 354 349 342 339 345 346 356 39 34 10 9 355 348 270 303 316 77 106 119 121 154 162 134 126 103 130 175 116 160 167 167 190 191 212 176 139 145 95
19 19 18 15 14 9 2 356 351 350 344 336 333 340 342 330 325 339 360 351 351 353 24 11 97 118 137 121 93 139 169 148 107 138 172 170 143 172 189 205 203 216 200 169 135 137 46
17 16 14 13 11 6 359 355 350 345 340 331 324 330 326 220 272 328 328 342 347 351 78 338 49 103 144 82 136 151 163 113 124 136 213 149 184 178 203 222 201 154 143 145 136 96 135
9 10 10 8 7 4 359 352 349 342 336 325 315 314 298 246 246 283 318 334 337 247 64 6 62 55 136 36 86 120 141 70 88 118 338 264 229 241 324 48 176 135 111 92 74 56 129
359 2 4 4 4 1 358 353 348 342 334 323 308 295 260 248 232 273 313 324 274 53 332 358 359 16 116 65 92 89 153 148 249 318 352 305 148 99 146 104 135 180 179 145 161 197 272
351 354 356 358 360 0 356 353 348 341 335 323 306 273 242 251 247 269 314 149 80 338 285 6 359 70 83 25 67 71 115 109 65 7 283 335 185 176 175 226 189 188 220 184 212 185 184
344 347 350 352 354 356 356 352 351 343 337 327 300 252 234 206 206 219 173 118 160 196 292 328 239 75 107 103 123 116 51 41 359 267 320 305 229 185 206 159 161 177 218 109 114 155 220
339 341 344 347 350 351 353 352 352 347 339 331 300 221 206 187 171 174 137 167 197 220 288 28 80 355 90 36 121 119 63 28 15 43 230 137 287 173 132 165 185 231 157 178 222 203 228
334 337 340 344 348 350 351 351 352 351 344 330 287 187 238 174 166 190 193 191 232 238 206 214 140 93 58 57 56 101 108 123 4 46 94 68 283 165 186 216 194 164 187 215 258 250 248
329 332 335 339 344 348 351 352 352 351 355 335 231 168 203 164 165 7 174 197 229 240 156 156 126 109 162 118 90 112 147 259 351 303 344 37 247 274 337 354 273 305 235 226 240 201 227
323 327 331 337 343 347 350 353 354 353 356 357 340 129 156 168 201 199 232 253 254 230 191 156 140 108 89 135 145 179 212 5 14 98 56 170 94 271 181 159 157 180 98 162 184 300 215
319 325 330 335 342 346 346 351 354 353 351 348 318 181 160 198 180 186 186 230 226 206 165 122 123 133 135 135 142 177 199 195 350 70 67 169 172 274 285 357 337 229 194 113 192 213 212
313 319 326 335 342 344 345 346 350 353 349 350 347 46 152 171 183 200 206 253 185 161 169 149 132 208 174 164 183 206 213 184 138 36 75 328 277 244 279 269 251 274 271 251 208 164 240
301 314 323 329 339 344 344 346 346 350 353 354 4 7 348 272 214 188 188 201 219 177 167 187 194 166 178 177 205 206 192 224 232 101 76 38 311 268 277 283 206 243 276 272 247 193 206
286 302 313 325 334 341 342 341 344 349 359 342 352 345 342 279 194 201 199 187 232 214 201 206 174 150 195 227 179 118 122 82 64 308 139 242 200 269 279 1 220 250 225 227 277 232 260
281 296 306 318 328 334 338 337 336 344 356 350 328 305 231 257 244 233 210 232 251 229 201 174 161 149 170 137 109 95 77 83 77 58 17 164 160 197 284 261 240 51 196 259 247 229 240
278 290 300 309 318 326 333 332 327 329 344 343 308 263 196 260 284 278 260 258 298 207 203 170 174 188 159 136 94 78 115 200 138 47 42 301 185 225 253 239 312 236 201 201 222 215 199
274 284 293 301 309 317 324 327 324 319 329 330 298 247 211 260 232 267 310 294 238 180 162 113 146 156 158 93 135 179 211 212 242 172 120 78 50 248 170 249 267 353 137 133 162 246 187
273 282 289 294 300 307 315 317 320 318 322 321 283 226 209 240 275 243 235 288 252 174 160 132 152 171 178 142 141 167 200 187 241 234 187 200 191 239 232 250 263 279 132 155 232 57 182
275 282 287 290 294 298 306 309 313 315 315 316 289 246 232 242 262 260 254 257 310 262 192 144 140 169 119 142 167 173 189 187 219 235 218 215 198 218 188 237 256 156 154 228 46 47 129
274 280 281 282 286 292 297 301 305 307 304 302 297 265 244 244 260 261 251 245 249 245 296 241 290 168 157 113 175 138 163 169 211 243 177 231 227 244 223 289 173 235 252 252 316 206 164